Torna al catalogo

STARLINK-2634

AttivoComunicazioniVLEO
NORAD 48445·PAYLOAD·🇺🇸 United States

Lanciato May 9, 2021 da Cape Canaveral Space Force Station

Loading…

Prossimi Passaggi (prossime 24 ore)

TLE

AggiornatoSource: CelesTrak SupGP

Epoca: Sep 14, 2026, 19:46 UTC

1 48445C 21040T   26257.82409722  .00041125  00000+0  13223-2 0  2570
2 48445  53.1590  17.9298 0001081  87.5611 223.2535 15.31684299    15

Traccia STARLINK-2634 in tempo reale con AllMySat

Download on the App Store